APL New Jersey — A8NM6 — position and weather

sailwx.info

Track history (hours):
 
Tides and Currents Weather Stations Pressure Air Temp Water Temp Dewpoint Dewpoint Depression Visibility Wind Speed Wind Dir Waves Ship Positions

APL New Jersey

Last reported at 2014-Oct-20 06:33 UTC. Time now 2014-Oct-23 06:39 UTC.
Position N 21°41' E 119°26'.

Length 293 m; draft 13.6 m.

Type: Cargo ship. MMSI: 636013522.

Date/timePositionNaut miles runAvg speedWind from/ knotsBaromVisibWave heightAir tempDewpointWater temp
2014-Oct-20 06:33N 21°41' E 119°26'2120.8
2014-Oct-20 05:33N 21°59' E 119°38'2121.1
2014-Oct-20 04:32N 22°16' E 119°51'2020.1
2014-Oct-20 03:33N 22°31' E 120°05'1312.9
2014-Oct-20 02:33N 22°33' E 120°19'0 0.4
2014-Oct-20 01:28N 22°34' E 120°19'0 0.0
2014-Oct-20 00:22N 22°34' E 120°19'0 0.0
2014-Oct-19 16:19N 22°34' E 120°19'0 0.0
2014-Oct-19 13:04N 22°34' E 120°19'0 0.0
2014-Oct-19 12:28N 22°34' E 120°19'0 0.0
2014-Oct-19 11:28N 22°34' E 120°19'0 0.0
2014-Oct-19 10:28N 22°34' E 120°19'0 0.0
2014-Oct-19 09:28N 22°34' E 120°19'0 0.5
2014-Oct-19 08:33N 22°33' E 120°19'6 6.2
2014-Oct-19 07:33N 22°32' E 120°13'9 8.9
2014-Oct-19 06:33N 22°36' E 120°04'1414.1
2014-Oct-19 05:33N 22°48' E 119°55'  
2014-Oct-16 09:33N 35°16' E 139°46'1111.0
2014-Oct-16 08:33N 35°27' E 139°41'1 0.5
2014-Oct-16 07:28N 35°26' E 139°41'0 0.0
2014-Oct-16 06:31N 35°26' E 139°41'0 0.0
2014-Oct-16 05:31N 35°26' E 139°41'0 0.0
2014-Oct-16 04:31N 35°26' E 139°41'0 0.0
2014-Oct-16 03:31N 35°26' E 139°41'0 0.0
2014-Oct-16 02:31N 35°26' E 139°41'0 0.0
2014-Oct-16 01:31N 35°26' E 139°41'21 2.9
2014-Oct-15 18:23N 35°06' E 139°45'26 8.6
2014-Oct-15 15:22N 34°58' E 140°15'  
Track history (hours):
 
Tides and Currents Weather Stations Pressure Air Temp Water Temp Dewpoint Dewpoint Depression Visibility Wind Speed Wind Dir Waves Ship Positions

APL New Jersey

Last reported at 2014-Oct-20 06:33 UTC. Time now 2014-Oct-23 06:39 UTC.
Position N 21°41' E 119°26'.

Length 293 m; draft 13.6 m.

Type: Cargo ship. MMSI: 636013522.

Date/timePositionNaut miles runAvg speedWind from/ knotsBaromVisibWave heightAir tempDewpointWater temp
2014-Oct-20 06:33N 21°41' E 119°26'2120.8
2014-Oct-20 05:33N 21°59' E 119°38'2121.1
2014-Oct-20 04:32N 22°16' E 119°51'2020.1
2014-Oct-20 03:33N 22°31' E 120°05'1312.9
2014-Oct-20 02:33N 22°33' E 120°19'0 0.4
2014-Oct-20 01:28N 22°34' E 120°19'0 0.0
2014-Oct-20 00:22N 22°34' E 120°19'0 0.0
2014-Oct-19 16:19N 22°34' E 120°19'0 0.0
2014-Oct-19 13:04N 22°34' E 120°19'0 0.0
2014-Oct-19 12:28N 22°34' E 120°19'0 0.0
2014-Oct-19 11:28N 22°34' E 120°19'0 0.0
2014-Oct-19 10:28N 22°34' E 120°19'0 0.0
2014-Oct-19 09:28N 22°34' E 120°19'0 0.5
2014-Oct-19 08:33N 22°33' E 120°19'6 6.2
2014-Oct-19 07:33N 22°32' E 120°13'9 8.9
2014-Oct-19 06:33N 22°36' E 120°04'1414.1
2014-Oct-19 05:33N 22°48' E 119°55'  
2014-Oct-16 09:33N 35°16' E 139°46'1111.0
2014-Oct-16 08:33N 35°27' E 139°41'1 0.5
2014-Oct-16 07:28N 35°26' E 139°41'0 0.0
2014-Oct-16 06:31N 35°26' E 139°41'0 0.0
2014-Oct-16 05:31N 35°26' E 139°41'0 0.0
2014-Oct-16 04:31N 35°26' E 139°41'0 0.0
2014-Oct-16 03:31N 35°26' E 139°41'0 0.0
2014-Oct-16 02:31N 35°26' E 139°41'0 0.0
2014-Oct-16 01:31N 35°26' E 139°41'21 2.9
2014-Oct-15 18:23N 35°06' E 139°45'26 8.6
2014-Oct-15 15:22N 34°58' E 140°15'  

Dump ship's entire track history